TimeHST,TemperatureF,Dew PointF,Humidity,Sea Level PressureIn,VisibilityMPH,Wind Direction,Wind SpeedMPH,Gust SpeedMPH,PrecipitationIn,Events,Conditions,WindDirDegrees,DateUTC
12:00 AM,71.6,68.0,88,30.09,10.0,SW,3.5,-,N/A,,Mostly Cloudy,230,2012-10-15 10:00:00
12:17 AM,71.6,68.0,88,30.08,10.0,Calm,Calm,-,N/A,,Overcast,0,2012-10-15 10:17:00
12:31 AM,71.6,68.0,88,30.08,10.0,SSE,3.5,-,N/A,,Mostly Cloudy,160,2012-10-15 10:31:00
12:33 AM,71.6,68.0,88,30.08,10.0,South,4.6,-,N/A,,Mostly Cloudy,190,2012-10-15 10:33:00
12:44 AM,71.6,66.2,83,30.08,10.0,Calm,Calm,-,N/A,,Mostly Cloudy,0,2012-10-15 10:44:00
12:52 AM,71.6,66.2,83,30.08,10.0,Calm,Calm,-,N/A,,Mostly Cloudy,0,2012-10-15 10:52:00
12:53 AM,71.6,66.2,83,30.08,10.0,Calm,Calm,-,N/A,,Mostly Cloudy,0,2012-10-15 10:53:00
12:54 AM,71.6,66.2,83,30.08,10.0,Calm,Calm,-,N/A,,Mostly Cloudy,0,2012-10-15 10:54:00
12:55 AM,71.8,66.9,85,30.08,10.0,Calm,Calm,-,N/A,,Mostly Cloudy,0,2012-10-15 10:55:00
1:28 AM,71.6,68.0,88,30.07,10.0,Calm,Calm,-,N/A,,Overcast,0,2012-10-15 11:28:00
1:29 AM,71.6,68.0,88,30.07,9.0,Variable,3.5,-,N/A,,Overcast,0,2012-10-15 11:29:00
1:31 AM,71.6,68.0,88,30.07,6.0,Calm,Calm,-,N/A,Rain,Light Rain,0,2012-10-15 11:31:00
1:34 AM,71.6,68.0,88,30.07,4.0,Calm,Calm,-,N/A,Rain,Light Rain,0,2012-10-15 11:34:00
1:37 AM,71.6,68.0,88,30.07,2.5,East,3.5,-,N/A,Rain,Rain,90,2012-10-15 11:37:00
1:38 AM,71.6,68.0,88,30.07,2.5,East,3.5,-,N/A,Rain,Rain,100,2012-10-15 11:38:00
1:44 AM,71.6,68.0,88,30.07,3.0,Calm,Calm,-,N/A,Rain,Light Rain,0,2012-10-15 11:44:00
1:55 AM,70.9,67.5,89,30.06,10.0,WSW,3.5,-,0.02,,Overcast,250,2012-10-15 11:55:00
2:19 AM,69.8,68.0,94,30.06,10.0,WNW,3.5,-,N/A,,Overcast,300,2012-10-15 12:19:00
2:32 AM,69.8,68.0,94,30.06,10.0,Calm,Calm,-,N/A,,Overcast,0,2012-10-15 12:32:00
2:37 AM,69.8,68.0,94,30.06,8.0,Calm,Calm,-,N/A,,Light Drizzle,0,2012-10-15 12:37:00
2:49 AM,69.8,68.0,94,30.06,8.0,Calm,Calm,-,N/A,,Overcast,0,2012-10-15 12:49:00
2:54 AM,69.8,68.0,94,30.06,8.0,Calm,Calm,-,N/A,,Light Drizzle,0,2012-10-15 12:54:00
2:55 AM,70.3,67.6,91,30.06,7.0,WSW,3.5,-,0.00,,Light Drizzle,250,2012-10-15 12:55:00
3:09 AM,69.8,68.0,94,30.06,9.0,East,3.5,-,N/A,,Light Drizzle,80,2012-10-15 13:09:00
3:10 AM,69.8,68.0,94,30.06,10.0,East,5.8,-,N/A,,Mostly Cloudy,80,2012-10-15 13:10:00
3:15 AM,69.8,68.0,94,30.06,10.0,ESE,4.6,-,N/A,,Mostly Cloudy,110,2012-10-15 13:15:00
3:25 AM,69.8,68.0,94,30.06,10.0,East,4.6,-,N/A,,Mostly Cloudy,80,2012-10-15 13:25:00
3:55 AM,70.2,66.7,89,30.05,10.0,WSW,3.5,-,0.01,,Mostly Cloudy,240,2012-10-15 13:55:00
4:52 AM,69.8,66.2,88,30.05,10.0,ENE,3.5,-,N/A,,Mostly Cloudy,60,2012-10-15 14:52:00
4:55 AM,70.5,66.9,88,30.05,10.0,Calm,Calm,-,N/A,,Mostly Cloudy,0,2012-10-15 14:55:00
5:26 AM,71.6,66.2,83,30.06,10.0,ENE,4.6,-,N/A,,Light Drizzle,60,2012-10-15 15:26:00
5:44 AM,71.6,66.2,83,30.06,10.0,East,6.9,-,N/A,,Partly Cloudy,100,2012-10-15 15:44:00
5:55 AM,70.9,66.6,86,30.06,10.0,East,6.9,-,0.00,,Scattered Clouds,100,2012-10-15 15:55:00
6:03 AM,71.6,66.2,83,30.06,10.0,East,6.9,-,N/A,,Light Drizzle,90,2012-10-15 16:03:00
6:13 AM,71.6,66.2,83,30.06,10.0,East,6.9,-,N/A,,Mostly Cloudy,80,2012-10-15 16:13:00
6:36 AM,71.6,66.2,83,30.07,10.0,East,4.6,-,N/A,,Light Drizzle,80,2012-10-15 16:36:00
6:50 AM,71.6,66.2,83,30.07,10.0,East,6.9,-,N/A,,Mostly Cloudy,80,2012-10-15 16:50:00
6:55 AM,71.2,66.7,86,30.07,10.0,East,6.9,-,0.00,,Mostly Cloudy,80,2012-10-15 16:55:00
7:55 AM,72.9,65.3,77,30.08,10.0,ENE,6.9,-,N/A,,Scattered Clouds,60,2012-10-15 17:55:00
8:55 AM,74.1,64.6,72,30.09,10.0,ENE,6.9,-,N/A,,Clear,70,2012-10-15 18:55:00
9:55 AM,75.7,64.4,68,30.08,10.0,ENE,9.2,-,N/A,,Mostly Cloudy,60,2012-10-15 19:55:00
10:55 AM,77.5,64.6,64,30.06,10.0,ENE,10.4,-,N/A,,Overcast,60,2012-10-15 20:55:00
11:55 AM,79.5,63.5,58,30.04,10.0,East,9.2,20.7,N/A,,Mostly Cloudy,90,2012-10-15 21:55:00
12:55 PM,81.0,63.3,55,30.01,10.0,East,12.7,-,N/A,,Mostly Cloudy,90,2012-10-15 22:55:00
1:55 PM,80.8,62.8,54,29.98,10.0,East,18.4,26.5,N/A,,Mostly Cloudy,90,2012-10-15 23:55:00
2:55 PM,80.4,63.1,55,29.97,10.0,ESE,8.1,18.4,N/A,,Scattered Clouds,110,2012-10-16 00:55:00
3:55 PM,79.2,64.0,60,29.96,10.0,ESE,8.1,-,N/A,,Clear,110,2012-10-16 01:55:00
4:55 PM,77.4,64.6,65,29.97,10.0,ESE,6.9,-,N/A,,Mostly Cloudy,110,2012-10-16 02:55:00
5:55 PM,76.3,64.8,67,29.98,10.0,ESE,6.9,-,N/A,,Mostly Cloudy,110,2012-10-16 03:55:00
6:46 PM,75.2,66.2,73,29.99,10.0,SE,4.6,-,N/A,,Overcast,130,2012-10-16 04:46:00
6:55 PM,75.2,65.7,72,29.99,10.0,ENE,9.2,-,N/A,,Overcast,70,2012-10-16 04:55:00
7:33 PM,75.2,66.2,73,30.01,10.0,Calm,Calm,-,N/A,,Light Drizzle,0,2012-10-16 05:33:00
7:39 PM,73.4,66.2,78,30.01,10.0,Calm,Calm,-,N/A,,Overcast,0,2012-10-16 05:39:00
7:42 PM,73.4,66.2,78,30.01,10.0,Calm,Calm,-,N/A,,Light Drizzle,0,2012-10-16 05:42:00
7:50 PM,73.4,66.2,78,30.01,10.0,East,4.6,-,N/A,,Light Drizzle,90,2012-10-16 05:50:00
7:53 PM,73.4,66.2,78,30.01,10.0,ENE,4.6,-,N/A,,Light Drizzle,70,2012-10-16 05:53:00
7:55 PM,74.3,66.0,75,30.02,10.0,East,4.6,-,0.00,,Light Drizzle,80,2012-10-16 05:55:00
7:57 PM,73.4,66.2,78,30.02,10.0,East,5.8,-,N/A,,Light Drizzle,80,2012-10-16 05:57:00
7:58 PM,73.4,66.2,78,30.02,10.0,East,5.8,-,N/A,,Overcast,80,2012-10-16 05:58:00
7:59 PM,73.4,66.2,78,30.02,10.0,ENE,4.6,-,N/A,,Overcast,70,2012-10-16 05:59:00
8:01 PM,73.4,66.2,78,30.02,10.0,ENE,3.5,-,N/A,,Overcast,60,2012-10-16 06:01:00
8:09 PM,73.4,66.2,78,30.02,10.0,East,5.8,-,N/A,,Light Drizzle,80,2012-10-16 06:09:00
8:19 PM,73.4,66.2,78,30.02,10.0,ENE,6.9,-,N/A,,Overcast,70,2012-10-16 06:19:00
8:55 PM,73.9,66.4,77,30.03,10.0,East,4.6,-,0.00,,Overcast,80,2012-10-16 06:55:00
9:55 PM,73.8,66.2,77,30.03,10.0,East,4.6,-,N/A,,Scattered Clouds,90,2012-10-16 07:55:00
10:55 PM,73.0,66.0,79,30.01,10.0,NE,6.9,-,N/A,,Clear,50,2012-10-16 08:55:00
11:55 PM,71.2,65.3,81,30.00,10.0,East,4.6,-,N/A,,Clear,100,2012-10-16 09:55:00